Location: Br�villers
(50.3473°N, 2.0171°E)
Time: 18:01:57
(UTC+00:00)

Daily predictions for brighter satellites

Satellite Brightness Start Highest point End
(mag) Time Altitude Azimuth Time Altitude Azimuth Time Altitude Azimuth
Cosmos 2333 Rocket 3.1 20:42:59 10° SSE 20:47:48 29° ESE 20:52:39 10° NE
ATLAS 2AS CENTAUR R/B 4.0 20:42:08 10° NW 20:49:28 41° NNE 20:56:16 10° E
Cosmos 1315 Rocket 4.0 20:46:34 10° N 20:50:12 30° ENE 20:53:50 10° SE
Resurs 01 Rocket 2.7 20:48:40 10° S 20:52:52 43° W 20:57:06 10° NNW
CZ-2C R/B 3.9 20:48:12 10° N 20:53:22 45° WNW 20:58:24 10° SW
Cosmos-2242 3.0 20:49:31 10° N 20:53:53 78° E 20:58:14 10° SSE
Cosmos 1818 3.6 20:49:22 10° SSW 20:54:44 65° SE 21:00:09 10° NE
Cosmos 773 Rocket 4.5 20:52:51 10° S 20:57:49 43° ESE 21:02:49 10° NE
Cosmos 2221 4.1 20:55:03 10° NNE 20:58:37 23° ENE 21:02:08 10° ESE
SL-16 R/B 3.1 20:53:04 10° SW 20:58:37 54° NW 21:04:13 10° NNE
ERS-1 Rocket 3.1 20:57:20 10° SSE 21:02:19 64° ENE 21:07:20 10° N
GEOS 3 Rocket 3.8 20:58:18 10° NE 21:03:37 56° SE 21:08:53 10° SSW
USA 215 3.7 21:01:03 10° ENE 21:07:09 40° SE 21:13:12 10° SSW
Cosmos 2278 Rocket 3.1 21:02:06 10° NNW 21:07:26 39° NE 21:12:44 10° ESE
ATLAS 5 CENTAUR R/B 1.5 21:07:11 10° SSW 21:11:20 71° SE 21:16:03 10° NE
Cosmos 1844 Rocket 3.2 21:06:55 10° NW 21:12:23 56° WSW 21:17:48 10° S
USA 245 3.9 21:09:18 10° S 21:12:34 53° W 21:16:45 10° NNW
Meteor 1-11 4.4 21:07:07 10° S 21:12:37 58° E 21:18:12 10° NNE
Cosmos 1400 Rocket 3.1 21:09:15 10° NNW 21:13:14 64° W 21:17:07 10° S
Gblst 52 Del rocket 4.3 21:07:41 10° WNW 21:13:20 82° SSW 21:19:35 10° ESE
Cosmos 1758 Rocket 3.9 21:11:09 10° SSW 21:15:39 72° WNW 21:20:09 10° N
SPOT 5 2.9 21:13:59 10° SSE 21:19:01 77° ENE 21:23:49 10° NNW
Lacrosse 5 rocket 3.2 21:15:31 10° WNW 21:19:25 34° N 21:23:06 10° ENE
BREEZE-M DEB (TANK) 4.4 21:16:00 10° W 21:20:10 82° S 21:36:29 10° ESE
Spot 2 Rocket 4.2 21:18:00 10° S 21:22:57 51° W 21:27:56 10° NNW
USA 81 4.1 21:20:23 10° S 21:25:36 65° E 21:30:51 10° NNE
BREEZE M DEB (TANK) 3.1 21:24:24 10° W 21:26:36 23° SSW 21:27:39 16° SSE
Cosmos 2181 Rocket 4.1 21:21:39 10° N 21:28:04 85° E 21:34:15 10° S
TSX-5 4.4 21:31:04 10° NNW 21:34:20 43° NE 21:37:36 13° ESE
Cosmos 2074 Rocket 4.4 21:29:15 11° SSE 21:34:49 46° E 21:40:43 10° NNE
SPOT 1/Viking Rocket 4.3 21:32:35 10° S 21:37:34 49° W 21:42:36 10° NNW
Cosmos 1953 Rocket 3.7 21:34:27 10° SSW 21:38:45 74° W 21:43:06 10° N
USA 267 3.3 21:34:35 10° ESE 21:41:10 86° NNE 21:47:47 10° WNW
SAR-Lupe-2 4.2 21:39:33 10° N 21:43:06 58° WNW 21:46:37 10° SSW
Cosmos 2084 3.6 21:40:17 10° NW 21:44:45 70° SW 21:48:05 17° SSE
Cosmos 1842 Rocket 3.6 21:41:19 10° N 21:45:41 73° ENE 21:49:02 17° SSE
Cosmos 2322 Rocket 4.1 21:41:07 10° WSW 21:46:09 33° NW 21:51:14 10° NNE
MTI 4.2 21:48:32 10° NNE 21:51:31 42° E 21:53:10 21° SSE
ATLAS CENTAUR R/B 1.5 21:52:35 10° NW 21:56:11 49° SW 21:58:26 20° SSE
Cosmos 1825 4.0 21:58:09 14° ESE 21:59:40 18° E 22:02:15 10° NE
Cosmos 1980 4.3 21:56:55 16° SSE 22:00:56 38° ESE 22:06:06 10° NE
ALOS 2 4.4 21:58:03 10° ESE 22:01:21 21° ENE 22:04:40 10° NNE
COSMOS 2428 2.7 22:00:01 10° SSW 22:05:42 86° ESE 22:11:26 10° NNE
Cosmos 1869 3.3 22:02:40 10° NNW 22:06:40 83° WSW 22:09:22 20° S
Cosmos 2322 4.3 22:04:01 10° SW 22:09:41 60° NW 22:15:22 10° NNE
NOSS 0 Rocket 4.1 22:07:31 12° S 22:13:10 55° ESE 22:19:12 10° NE
NOSS 3-4 (A) 3.9 22:06:21 10° NW 22:13:14 80° NE 22:19:46 15° SE
NOSS 3-4 (C) 3.9 22:06:27 10° NW 22:13:20 80° NE 22:19:54 15° SE
Terra 2.5 22:10:33 14° S 22:14:26 48° W 22:19:04 10° NNW
Cosmos 2237 Rocket 2.5 22:14:58 17° S 22:19:07 48° ESE 22:24:36 10° NE
Genesis I 4.2 22:18:36 24° SE 22:19:35 27° ESE 22:22:55 10° ENE
BREEZE-M DEB 4.5 22:16:04 10° W 22:20:10 56° SSW 22:35:41 10° SE
Cosmos 2219 Rocket 2.5 22:15:59 10° SW 22:21:33 69° WNW 22:27:11 10° NNE
Cosmos 2344 4.0 22:16:02 15° S 22:21:38 39° ESE 22:28:51 10° NE
Atlas Centaur 2 4.4 22:19:46 10° SSW 22:21:21 11° SSW 22:21:21 11° SSW
Cosmos 1538 Rocket 4.5 22:17:28 10° SW 22:22:48 65° WNW 22:28:07 10° NNE
Cosmos 2360 Rocket 4.1 22:19:00 10° WSW 22:24:02 32° NW 22:29:06 10° NNE
NOSS 3-3 (A) 4.0 22:18:13 10° SW 22:24:09 88° NW 22:30:58 10° NE
NOSS 3-3 (C) 4.0 22:18:18 10° SW 22:24:15 88° NW 22:31:06 10° NE
Cosmos 1315 Rocket 4.4 22:23:10 10° NNW 22:26:44 29° W 22:29:55 12° SSW
Thor Agena Rocket 3.8 22:25:12 10° NNE 22:30:14 53° E 22:33:18 22° S
Cosmos 2333 Rocket 2.9 22:26:08 10° SW 22:31:44 57° NW 22:37:25 10° NNE
Cosmos 2184 Rocket 4.2 22:27:10 12° SSW 22:32:55 75° W 22:39:16 10° N
Cosmos 2221 3.4 22:32:13 10° NNW 22:36:23 42° W 22:39:20 17° SSW
BREEZE-M DEB (TANK) 1.5 22:35:59 10° W 22:40:20 64° SSW 22:41:22 32° SE
Iridium 2 3.6 22:36:46 10° N 22:40:37 81° E 22:42:26 29° S
Cosmos 1371 Rocket 4.0 22:35:40 10° NNW 22:40:57 85° ENE 22:44:15 24° SSE
ATLAS 2AS CENTAUR R/B 2.8 22:33:32 10° NW 22:41:13 82° SW 22:46:25 20° SE
EO 1 Del DPAF 3.3 22:39:36 10° NNE 22:43:21 58° E 22:45:00 30° S
Cosmos 1892 2.9 22:41:59 21° SSW 22:44:21 65° WNW 22:48:09 10° N
MOS 1-B Rocket 4.5 22:37:18 10° NNE 22:45:08 67° E 22:49:56 21° S
Aureole 2 Rocket 2.6 22:45:21 10° NNW 22:48:05 44° ENE 22:48:59 32° ESE
Cosmos 1328 Rocket 4.5 22:44:06 10° N 22:48:08 37° ENE 22:50:25 21° SE
Okean 3 Rocket 4.2 22:47:02 26° SE 22:49:04 42° E 22:53:15 10° NNE
Cosmos 1606 3.4 22:46:48 10° N 22:50:33 45° ENE 22:52:19 26° SE
USA 215 3.3 22:43:59 10° ENE 22:50:34 84° NNW 22:57:08 10° WSW
Cosmos 2278 Rocket 2.9 22:46:15 10° NW 22:51:36 44° WSW 22:54:59 21° S
Cosmos 2112 Rocket 4.0 22:48:24 20° SSW 22:52:08 75° ESE 22:57:30 10° NNE
Cosmos 2297 3.9 22:47:27 10° NNW 22:53:13 67° ENE 22:57:11 20° SE
Cosmos 158 Rocket 3.8 22:52:56 20° SSW 22:56:19 85° ESE 23:01:16 10° NNE
ATLAS 5 CENTAUR R/B 3.8 22:52:33 10° W 22:56:26 29° NNW 23:00:50 10° NE
Cosmos 1420 Rocket 4.4 22:51:54 10° NNW 22:57:08 59° ENE 23:00:36 21° SE
Lacrosse 5 rocket 2.8 22:55:28 10° NW 22:59:18 37° NNE 23:02:56 10° E
Cosmos 1943 Rocket 3.2 22:54:19 10° NNW 22:59:44 42° NE 23:04:40 12° ESE
Spot 4 4.0 22:59:07 26° S 23:01:47 64° WSW 23:06:33 10° NNW
SL-16 R/B 2.8 23:00:47 25° SSE 23:03:30 41° ESE 23:08:48 10° NE
Cosmos 2058 3.8 23:01:11 16° SW 23:04:10 43° WNW 23:08:09 10° N
Cosmos 2056 Rocket 3.6 22:59:29 10° NNW 23:04:54 74° WSW 23:07:58 26° S
Cosmos 1408 2.9 23:03:24 26° SSW 23:05:12 58° WNW 23:08:44 10° N
Cosmos 2154 Rocket 4.4 23:07:49 16° SSW 23:12:51 59° WNW 23:19:02 10° N
Cosmos 2341 Rocket 4.0 23:11:46 23° S 23:15:51 88° E 23:22:07 10° N
Cosmos 332 Rocket 4.2 23:13:47 10° NNW 23:18:32 56° ENE 23:21:28 22° SE
Cosmos 1680 Rocket 4.0 23:15:57 14° SW 23:20:34 61° WNW 23:25:53 10° NNE
Meteor 2-3 Rocket 4.1 23:21:02 26° SSE 23:24:01 51° E 23:29:32 10° NNE
USA 267 3.9 23:21:24 24° S 23:24:38 38° SW 23:30:41 10° WNW
Cosmos 2151 3.2 23:23:52 27° SSW 23:26:07 66° WNW 23:30:23 10° N
IRIDIUM 104 4.3 23:23:26 28° S 23:26:14 76° E 23:31:28 10° N
Helios 1A 3.2 23:24:53 29° SE 23:26:53 62° ENE 23:31:01 10° N
Cosmos 405 4.2 23:24:24 10° N 23:27:41 34° ENE 23:29:08 24° ESE
Meteor 1-26 Rocket 4.4 23:25:44 10° N 23:31:46 76° ENE 23:35:20 25° SSE
Cosmos 1452 Rocket 3.6 23:26:40 10° NNW 23:31:58 75° ENE 23:35:06 25° SSE
CZ-4C R/B 3.5 23:25:51 10° NW 23:32:33 55° NE 23:40:23 10° ESE
COSMOS 2455 3.0 23:27:40 10° NW 23:33:45 75° NE 23:38:25 18° SE
SL-8 Rocket 3.9 23:30:59 25° S 23:34:49 89° W 23:41:01 10° N
Cosmos 1825 3.1 23:32:56 23° SW 23:34:52 42° WNW 23:38:30 10° N
IRIDIUM 114 4.3 23:32:35 28° S 23:35:23 89° E 23:40:39 10° N
Cosmos 1340 2.7 23:34:23 39° SSE 23:35:35 63° E 23:39:19 10° NNE
Cosmos 1933 3.3 23:32:39 10° NNW 23:36:41 75° W 23:38:13 36° S
ALOS 2 3.0 23:35:27 30° SSW 23:37:21 53° W 23:41:40 10° NNW
Cosmos 1408 Rocket 3.6 23:35:56 33° SSE 23:37:47 67° E 23:42:10 10° NNE
Cosmos 1151 Rocket 3.1 23:33:53 10° NNW 23:38:13 69° W 23:40:03 33° S
Meteor 2-12 Rocket 4.4 23:37:27 26° S 23:41:07 85° E 23:47:17 10° NNE
APEX 2.1 23:41:23 10° NNW 23:44:07 86° WSW 23:44:22 72° SSE
Cosmos 1727 Rocket 4.0 23:37:59 10° N 23:44:15 80° E 23:48:04 25° SSE
Cosmos 2369 Rocket 2.6 23:38:51 10° NNW 23:44:24 59° NE 23:48:49 16° SE
IRIDIUM 103 4.4 23:41:42 28° SSW 23:44:32 78° W 23:49:48 10° N
Cosmos 44 2.9 23:43:38 29° SSW 23:45:46 77° SE 23:50:14 10° NE
Cosmos 1500 Rocket 4.3 23:44:49 28° SE 23:46:38 42° E 23:50:47 10° NNE
GP-B 3.4 23:42:20 10° N 23:46:42 58° W 23:48:50 28° SSW
Cosmos 371 Rocket 3.4 23:43:24 10° NNW 23:48:14 63° WSW 23:50:25 31° S
SL-4 R/B 1.9 23:48:59 32° NW 23:48:59 32° NW 23:50:24 10° NNW
Helios 1B rocket 3.6 23:50:13 10° NNE 23:53:54 30° E 23:55:23 24° SE
CREW DRAGON DEMO-1 DEB 2.6 23:54:49 45° SW 23:55:36 75° SSE 23:58:40 10° ENE
